1577833258,2020-01-01 00:00,402.00,-16
1577833319,2020-01-01 00:01,403.00,-14
1577833379,2020-01-01 00:02,404.00,-16
1577833439,2020-01-01 00:03,403.00,-17
1577833499,2020-01-01 00:04,401.00,-14
1577833559,2020-01-01 00:05,404.00,-15
1577833619,2020-01-01 00:06,403.00,-16
1577833679,2020-01-01 00:07,403.00,-18
1577833739,2020-01-01 00:08,401.00,-16
1577833799,2020-01-01 00:09,401.00,-15
1577833859,2020-01-01 00:10,404.00,-16
1577833920,2020-01-01 00:12,403.00,-16
1577833980,2020-01-01 00:13,404.00,-16
1577834040,2020-01-01 00:14,401.00,-16
1577834100,2020-01-01 00:15,403.00,-15
1577834160,2020-01-01 00:16,402.00,-15
1577834220,2020-01-01 00:17,404.00,-18
1577834280,2020-01-01 00:18,403.00,-17
1577834340,2020-01-01 00:19,401.00,-16
1577834400,2020-01-01 00:20,402.00,-17
1577834461,2020-01-01 00:21,402.00,-17
1577834521,2020-01-01 00:22,402.00,-16
1577834581,2020-01-01 00:23,404.00,-16
1577834641,2020-01-01 00:24,404.00,-17
1577834701,2020-01-01 00:25,402.00,-17
1577834761,2020-01-01 00:26,403.00,-17
1577834821,2020-01-01 00:27,403.00,-16
1577834881,2020-01-01 00:28,402.00,-16
1577834941,2020-01-01 00:29,402.00,-16
1577835001,2020-01-01 00:30,403.00,-16
1577835062,2020-01-01 00:31,403.00,-17
1577835122,2020-01-01 00:32,401.00,-17
1577835182,2020-01-01 00:33,401.00,-17
1577835242,2020-01-01 00:34,402.00,-17
1577835302,2020-01-01 00:35,403.00,-18
1577835362,2020-01-01 00:36,403.00,-16
1577835422,2020-01-01 00:37,402.00,-17
1577835482,2020-01-01 00:38,400.00,-16
1577835542,2020-01-01 00:39,404.00,-15
1577835602,2020-01-01 00:40,403.00,-17
1577835663,2020-01-01 00:41,403.00,-16
1577835723,2020-01-01 00:42,402.00,-18
1577835786,2020-01-01 00:43,402.00,-16
1577835846,2020-01-01 00:44,401.00,-17
1577835906,2020-01-01 00:45,402.00,-16
1577835966,2020-01-01 00:46,401.00,-17
1577836027,2020-01-01 00:47,402.00,-15
1577836087,2020-01-01 00:48,403.00,-16
1577836147,2020-01-01 00:49,402.00,-17
1577836208,2020-01-01 00:50,401.00,-17
1577836268,2020-01-01 00:51,400.00,-16
1577836328,2020-01-01 00:52,402.00,-16
1577836389,2020-01-01 00:53,401.00,-17
1577836449,2020-01-01 00:54,402.00,-17
1577836509,2020-01-01 00:55,400.00,-17
1577836569,2020-01-01 00:56,403.00,-16
1577836630,2020-01-01 00:57,401.00,-16
1577836690,2020-01-01 00:58,401.00,-17
1577836750,2020-01-01 00:59,399.00,-16
1577836811,2020-01-01 01:00,400.00,-19
1577836871,2020-01-01 01:01,401.00,-16
1577836931,2020-01-01 01:02,402.00,-17
1577836991,2020-01-01 01:03,400.00,-17
1577837052,2020-01-01 01:04,402.00,-16
1577837112,2020-01-01 01:05,401.00,-18
1577837172,2020-01-01 01:06,400.00,-18
1577837233,2020-01-01 01:07,401.00,-19
1577837293,2020-01-01 01:08,401.00,-16
1577837353,2020-01-01 01:09,400.00,-18
1577837416,2020-01-01 01:10,401.00,-17
1577837477,2020-01-01 01:11,402.00,-17
1577837537,2020-01-01 01:12,402.00,-16
1577837597,2020-01-01 01:13,401.00,-16
1577837658,2020-01-01 01:14,400.00,-18
1577837718,2020-01-01 01:15,400.00,-16
1577837778,2020-01-01 01:16,401.00,-18
1577837838,2020-01-01 01:17,401.00,-18
1577837899,2020-01-01 01:18,401.00,-16
1577837959,2020-01-01 01:19,403.00,-15
1577838019,2020-01-01 01:20,400.00,-18
1577838080,2020-01-01 01:21,400.00,-15
1577838140,2020-01-01 01:22,402.00,-15
1577838200,2020-01-01 01:23,399.00,-17
1577838260,2020-01-01 01:24,403.00,-16
1577838321,2020-01-01 01:25,400.00,-16
1577838381,2020-01-01 01:26,400.00,-17
1577838441,2020-01-01 01:27,399.00,-17
1577838502,2020-01-01 01:28,402.00,-17
1577838562,2020-01-01 01:29,397.00,-17
1577838622,2020-01-01 01:30,400.00,-17
1577838683,2020-01-01 01:31,401.00,-16
1577838743,2020-01-01 01:32,400.00,-18
1577838803,2020-01-01 01:33,401.00,-17
1577838864,2020-01-01 01:34,399.00,-16
1577838924,2020-01-01 01:35,398.00,-17
1577838984,2020-01-01 01:36,399.00,-16
1577839044,2020-01-01 01:37,401.00,-18
1577839105,2020-01-01 01:38,400.00,-16
1577839165,2020-01-01 01:39,401.00,-15
1577839225,2020-01-01 01:40,399.00,-16
1577839286,2020-01-01 01:41,399.00,-16
1577839346,2020-01-01 01:42,399.00,-17
1577839406,2020-01-01 01:43,398.00,-16
1577839466,2020-01-01 01:44,400.00,-17
1577839527,2020-01-01 01:45,399.00,-16
1577839587,2020-01-01 01:46,399.00,-18
1577839647,2020-01-01 01:47,398.00,-16
1577839707,2020-01-01 01:48,400.00,-17
1577839768,2020-01-01 01:49,398.00,-16
1577839828,2020-01-01 01:50,399.00,-17
1577839888,2020-01-01 01:51,398.00,-16
1577839949,2020-01-01 01:52,399.00,-17
1577840009,2020-01-01 01:53,399.00,-16
1577840069,2020-01-01 01:54,399.00,-18
1577840129,2020-01-01 01:55,398.00,-16
1577840190,2020-01-01 01:56,398.00,-15
1577840250,2020-01-01 01:57,398.00,-16
1577840310,2020-01-01 01:58,401.00,-16
1577840371,2020-01-01 01:59,398.00,-15
1577840431,2020-01-01 02:00,398.00,-15
1577840491,2020-01-01 02:01,400.00,-17
1577840551,2020-01-01 02:02,398.00,-17
1577840612,2020-01-01 02:03,397.00,-16
1577840672,2020-01-01 02:04,397.00,-18
1577840732,2020-01-01 02:05,398.00,-16
1577840793,2020-01-01 02:06,397.00,-17
1577840853,2020-01-01 02:07,399.00,-16
1577840913,2020-01-01 02:08,397.00,-19
1577840973,2020-01-01 02:09,398.00,-17
1577841034,2020-01-01 02:10,399.00,-16
1577841094,2020-01-01 02:11,396.00,-16
1577841154,2020-01-01 02:12,397.00,-17
1577841215,2020-01-01 02:13,399.00,-16
1577841275,2020-01-01 02:14,398.00,-19
1577841335,2020-01-01 02:15,397.00,-17
1577841395,2020-01-01 02:16,397.00,-16
1577841456,2020-01-01 02:17,399.00,-16
1577841516,2020-01-01 02:18,400.00,-17
1577841576,2020-01-01 02:19,399.00,-17
1577841637,2020-01-01 02:20,399.00,-18
1577841697,2020-01-01 02:21,398.00,-17
1577841757,2020-01-01 02:22,398.00,-17
1577841818,2020-01-01 02:23,399.00,-16
1577841878,2020-01-01 02:24,398.00,-16
1577841938,2020-01-01 02:25,397.00,-15
1577841998,2020-01-01 02:26,397.00,-16
1577842059,2020-01-01 02:27,397.00,-16
1577842119,2020-01-01 02:28,397.00,-16
1577842179,2020-01-01 02:29,397.00,-17
1577842240,2020-01-01 02:30,395.00,-16
1577842300,2020-01-01 02:31,397.00,-17
1577842360,2020-01-01 02:32,395.00,-16
1577842420,2020-01-01 02:33,397.00,-17
1577842481,2020-01-01 02:34,398.00,-16
1577842541,2020-01-01 02:35,396.00,-17
1577842601,2020-01-01 02:36,398.00,-17
1577842662,2020-01-01 02:37,396.00,-16
1577842785,2020-01-01 02:39,398.00,-16
1577842845,2020-01-01 02:40,397.00,-17
1577842905,2020-01-01 02:41,399.00,-17
1577842966,2020-01-01 02:42,400.00,-17
1577843026,2020-01-01 02:43,398.00,-17
1577843086,2020-01-01 02:44,396.00,-17
1577843147,2020-01-01 02:45,397.00,-17
1577843207,2020-01-01 02:46,396.00,-17
1577843267,2020-01-01 02:47,399.00,-17
1577843327,2020-01-01 02:48,397.00,-17
1577843388,2020-01-01 02:49,398.00,-17
1577843448,2020-01-01 02:50,396.00,-17
1577843508,2020-01-01 02:51,397.00,-16
1577843569,2020-01-01 02:52,397.00,-17
1577843629,2020-01-01 02:53,398.00,-17
1577843689,2020-01-01 02:54,399.00,-18
1577843750,2020-01-01 02:55,397.00,-17
1577843810,2020-01-01 02:56,397.00,-16
1577843870,2020-01-01 02:57,398.00,-17
1577843930,2020-01-01 02:58,397.00,-17
1577843991,2020-01-01 02:59,398.00,-17
1577844051,2020-01-01 03:00,397.00,-18
1577844111,2020-01-01 03:01,399.00,-16
1577844172,2020-01-01 03:02,399.00,-16
1577844232,2020-01-01 03:03,398.00,-17
1577844292,2020-01-01 03:04,397.00,-15
1577844352,2020-01-01 03:05,398.00,-15
1577844413,2020-01-01 03:06,397.00,-17
1577844473,2020-01-01 03:07,396.00,-17
1577844533,2020-01-01 03:08,398.00,-18
1577844594,2020-01-01 03:09,396.00,-16
1577844654,2020-01-01 03:10,397.00,-16
1577844714,2020-01-01 03:11,398.00,-17
1577844774,2020-01-01 03:12,398.00,-18
1577844835,2020-01-01 03:13,398.00,-16
1577844895,2020-01-01 03:14,398.00,-17
1577844955,2020-01-01 03:15,396.00,-17
1577845016,2020-01-01 03:16,396.00,-17
1577845076,2020-01-01 03:17,394.00,-16
1577845136,2020-01-01 03:18,396.00,-16
1577845196,2020-01-01 03:19,396.00,-15
1577845257,2020-01-01 03:20,397.00,-19
1577845317,2020-01-01 03:21,398.00,-16
1577845377,2020-01-01 03:22,396.00,-15
1577845438,2020-01-01 03:23,396.00,-17
1577845498,2020-01-01 03:24,398.00,-18
1577845558,2020-01-01 03:25,396.00,-17
1577845618,2020-01-01 03:26,396.00,-17
1577845678,2020-01-01 03:27,397.00,-16
1577845739,2020-01-01 03:28,398.00,-17
1577845799,2020-01-01 03:29,396.00,-16
1577845859,2020-01-01 03:30,397.00,-17
1577845919,2020-01-01 03:31,398.00,-16
1577845979,2020-01-01 03:32,397.00,-18
1577846039,2020-01-01 03:33,397.00,-17
1577846099,2020-01-01 03:34,396.00,-14
1577846159,2020-01-01 03:35,397.00,-16
1577846219,2020-01-01 03:36,396.00,-15
1577846279,2020-01-01 03:37,395.00,-17
1577846339,2020-01-01 03:38,396.00,-15
1577846400,2020-01-01 03:40,398.00,-17
1577846460,2020-01-01 03:41,396.00,-19
1577846520,2020-01-01 03:42,397.00,-17
1577846580,2020-01-01 03:43,396.00,-15
1577846640,2020-01-01 03:44,397.00,-17
1577846700,2020-01-01 03:45,397.00,-16
1577846760,2020-01-01 03:46,397.00,-15
1577846820,2020-01-01 03:47,395.00,-17
1577846880,2020-01-01 03:48,396.00,-16
1577846940,2020-01-01 03:49,395.00,-16
1577847000,2020-01-01 03:50,399.00,-18
1577847061,2020-01-01 03:51,396.00,-16
1577847121,2020-01-01 03:52,396.00,-17
1577847181,2020-01-01 03:53,397.00,-15
1577847241,2020-01-01 03:54,399.00,-16
1577847301,2020-01-01 03:55,397.00,-15
1577847361,2020-01-01 03:56,396.00,-16
1577847421,2020-01-01 03:57,396.00,-17
1577847481,2020-01-01 03:58,395.00,-16
1577847541,2020-01-01 03:59,395.00,-17
1577847601,2020-01-01 04:00,397.00,-17
1577847661,2020-01-01 04:01,398.00,-17
1577847722,2020-01-01 04:02,395.00,-16
1577847782,2020-01-01 04:03,396.00,-16
1577847842,2020-01-01 04:04,395.00,-16
1577847902,2020-01-01 04:05,396.00,-16
1577847962,2020-01-01 04:06,396.00,-16
1577848022,2020-01-01 04:07,395.00,-15
1577848082,2020-01-01 04:08,396.00,-15
1577848142,2020-01-01 04:09,396.00,-17
1577848202,2020-01-01 04:10,394.00,-14
1577848262,2020-01-01 04:11,396.00,-15
1577848323,2020-01-01 04:12,395.00,-18
1577848383,2020-01-01 04:13,395.00,-16
1577848443,2020-01-01 04:14,396.00,-15
1577848503,2020-01-01 04:15,398.00,-15
1577848563,2020-01-01 04:16,398.00,-16
1577848623,2020-01-01 04:17,397.00,-16
1577848686,2020-01-01 04:18,396.00,-17
1577848746,2020-01-01 04:19,396.00,-17
1577848806,2020-01-01 04:20,395.00,-16
1577848867,2020-01-01 04:21,397.00,-17
1577848927,2020-01-01 04:22,395.00,-15
1577848987,2020-01-01 04:23,395.00,-16
1577849048,2020-01-01 04:24,396.00,-16
1577849108,2020-01-01 04:25,396.00,-17
1577849168,2020-01-01 04:26,395.00,-18
1577849228,2020-01-01 04:27,396.00,-16
1577849289,2020-01-01 04:28,396.00,-17
1577849349,2020-01-01 04:29,396.00,-19
1577849409,2020-01-01 04:30,395.00,-16
1577849470,2020-01-01 04:31,397.00,-16
1577849530,2020-01-01 04:32,395.00,-17
1577849590,2020-01-01 04:33,395.00,-19
1577849650,2020-01-01 04:34,396.00,-15
1577849711,2020-01-01 04:35,396.00,-16
1577849771,2020-01-01 04:36,394.00,-17
1577849831,2020-01-01 04:37,398.00,-15
1577849892,2020-01-01 04:38,396.00,-20
1577849952,2020-01-01 04:39,395.00,-16
1577850012,2020-01-01 04:40,398.00,-17
1577850072,2020-01-01 04:41,397.00,-17
1577850133,2020-01-01 04:42,396.00,-17
1577850193,2020-01-01 04:43,397.00,-15
1577850253,2020-01-01 04:44,397.00,-17
1577850314,2020-01-01 04:45,395.00,-16
1577850374,2020-01-01 04:46,395.00,-18
1577850434,2020-01-01 04:47,395.00,-19
1577850494,2020-01-01 04:48,397.00,-17
1577850555,2020-01-01 04:49,395.00,-18
1577850615,2020-01-01 04:50,396.00,-18
1577850675,2020-01-01 04:51,395.00,-17
1577850736,2020-01-01 04:52,396.00,-17
1577850796,2020-01-01 04:53,396.00,-16
1577850856,2020-01-01 04:54,395.00,-17
1577850917,2020-01-01 04:55,396.00,-16
1577850977,2020-01-01 04:56,394.00,-16
1577851037,2020-01-01 04:57,396.00,-16
1577851097,2020-01-01 04:58,394.00,-16
1577851158,2020-01-01 04:59,396.00,-18
1577851218,2020-01-01 05:00,395.00,-17
1577851278,2020-01-01 05:01,396.00,-17
1577851339,2020-01-01 05:02,395.00,-16
1577851399,2020-01-01 05:03,394.00,-16
1577851459,2020-01-01 05:04,396.00,-16
1577851519,2020-01-01 05:05,394.00,-17
1577851580,2020-01-01 05:06,396.00,-16
1577851640,2020-01-01 05:07,395.00,-16
1577851700,2020-01-01 05:08,397.00,-16
1577851761,2020-01-01 05:09,396.00,-17
1577851821,2020-01-01 05:10,396.00,-16
1577851881,2020-01-01 05:11,395.00,-17
1577851942,2020-01-01 05:12,396.00,-17
1577852002,2020-01-01 05:13,395.00,-16
1577852062,2020-01-01 05:14,395.00,-16
1577852122,2020-01-01 05:15,395.00,-16
1577852183,2020-01-01 05:16,394.00,-16
1577852243,2020-01-01 05:17,394.00,-16
1577852303,2020-01-01 05:18,395.00,-19
1577852364,2020-01-01 05:19,395.00,-16
1577852424,2020-01-01 05:20,396.00,-17
1577852484,2020-01-01 05:21,394.00,-16
1577852544,2020-01-01 05:22,395.00,-17
1577852605,2020-01-01 05:23,395.00,-16
1577852665,2020-01-01 05:24,395.00,-17
1577852725,2020-01-01 05:25,394.00,-15
1577852786,2020-01-01 05:26,394.00,-17
1577852846,2020-01-01 05:27,395.00,-18
1577852906,2020-01-01 05:28,395.00,-17
1577852967,2020-01-01 05:29,395.00,-18
1577853027,2020-01-01 05:30,395.00,-18
1577853087,2020-01-01 05:31,396.00,-17
1577853147,2020-01-01 05:32,395.00,-16
1577853208,2020-01-01 05:33,396.00,-16
1577853268,2020-01-01 05:34,396.00,-16
1577853328,2020-01-01 05:35,396.00,-18
1577853389,2020-01-01 05:36,395.00,-17
1577853449,2020-01-01 05:37,396.00,-17
1577853509,2020-01-01 05:38,395.00,-17
1577853569,2020-01-01 05:39,394.00,-17
1577853630,2020-01-01 05:40,395.00,-17
1577853690,2020-01-01 05:41,396.00,-17
1577853750,2020-01-01 05:42,395.00,-18
1577853810,2020-01-01 05:43,397.00,-16
1577853871,2020-01-01 05:44,396.00,-17
1577853931,2020-01-01 05:45,397.00,-16
1577853991,2020-01-01 05:46,397.00,-15
1577854052,2020-01-01 05:47,397.00,-16
1577854112,2020-01-01 05:48,397.00,-17
1577854172,2020-01-01 05:49,396.00,-18
1577854232,2020-01-01 05:50,396.00,-18
1577854293,2020-01-01 05:51,396.00,-17
1577854353,2020-01-01 05:52,396.00,-15
1577854413,2020-01-01 05:53,395.00,-17
1577854474,2020-01-01 05:54,397.00,-18
1577854534,2020-01-01 05:55,396.00,-19
1577854594,2020-01-01 05:56,395.00,-16
1577854654,2020-01-01 05:57,394.00,-16
1577854715,2020-01-01 05:58,396.00,-18
1577854775,2020-01-01 05:59,395.00,-16
1577854835,2020-01-01 06:00,397.00,-17
1577854896,2020-01-01 06:01,397.00,-16
1577854956,2020-01-01 06:02,398.00,-17
1577855016,2020-01-01 06:03,397.00,-17
1577855076,2020-01-01 06:04,397.00,-15
1577855137,2020-01-01 06:05,396.00,-16
1577855197,2020-01-01 06:06,395.00,-16
1577855257,2020-01-01 06:07,397.00,-18
1577855318,2020-01-01 06:08,397.00,-17
1577855378,2020-01-01 06:09,396.00,-18
1577855438,2020-01-01 06:10,396.00,-17
1577855499,2020-01-01 06:11,395.00,-18
1577855559,2020-01-01 06:12,399.00,-17
1577855619,2020-01-01 06:13,397.00,-19
1577855679,2020-01-01 06:14,397.00,-17
1577855740,2020-01-01 06:15,395.00,-16
1577855800,2020-01-01 06:16,396.00,-17
1577855860,2020-01-01 06:17,396.00,-17
1577855921,2020-01-01 06:18,396.00,-17
1577855981,2020-01-01 06:19,397.00,-16
1577856041,2020-01-01 06:20,397.00,-16
1577856101,2020-01-01 06:21,397.00,-17
1577856162,2020-01-01 06:22,396.00,-17
1577856222,2020-01-01 06:23,397.00,-17
1577856282,2020-01-01 06:24,395.00,-17
1577856343,2020-01-01 06:25,396.00,-16
1577856403,2020-01-01 06:26,395.00,-17
1577856464,2020-01-01 06:27,397.00,-17
1577856524,2020-01-01 06:28,396.00,-17
1577856584,2020-01-01 06:29,398.00,-17
1577856645,2020-01-01 06:30,398.00,-16
1577856705,2020-01-01 06:31,398.00,-16
1577856765,2020-01-01 06:32,397.00,-19
1577856825,2020-01-01 06:33,398.00,-17
1577856886,2020-01-01 06:34,395.00,-16
1577856946,2020-01-01 06:35,394.00,-17
1577857006,2020-01-01 06:36,395.00,-18
1577857067,2020-01-01 06:37,395.00,-19
1577857127,2020-01-01 06:38,396.00,-16
1577857187,2020-01-01 06:39,397.00,-18
1577857248,2020-01-01 06:40,394.00,-16
1577857308,2020-01-01 06:41,398.00,-17
1577857368,2020-01-01 06:42,397.00,-17
1577857428,2020-01-01 06:43,396.00,-16
1577857489,2020-01-01 06:44,396.00,-17
1577857549,2020-01-01 06:45,397.00,-17
1577857609,2020-01-01 06:46,395.00,-19
1577857670,2020-01-01 06:47,397.00,-15
1577857730,2020-01-01 06:48,398.00,-16
1577857790,2020-01-01 06:49,396.00,-17
1577857850,2020-01-01 06:50,397.00,-16
1577857911,2020-01-01 06:51,398.00,-18
1577857971,2020-01-01 06:52,397.00,-19
1577858031,2020-01-01 06:53,395.00,-16
1577858092,2020-01-01 06:54,396.00,-16
1577858152,2020-01-01 06:55,395.00,-17
1577858212,2020-01-01 06:56,399.00,-17
1577858272,2020-01-01 06:57,396.00,-15
1577858333,2020-01-01 06:58,396.00,-17
1577858393,2020-01-01 06:59,397.00,-16
1577858453,2020-01-01 07:00,395.00,-16
1577858514,2020-01-01 07:01,397.00,-15
1577858574,2020-01-01 07:02,397.00,-17
1577858634,2020-01-01 07:03,396.00,-17
1577858694,2020-01-01 07:04,396.00,-17
1577858755,2020-01-01 07:05,396.00,-17
1577858815,2020-01-01 07:06,395.00,-18
1577858875,2020-01-01 07:07,396.00,-18
1577858936,2020-01-01 07:08,395.00,-16
1577858996,2020-01-01 07:09,398.00,-17
1577859056,2020-01-01 07:10,396.00,-16
1577859116,2020-01-01 07:11,397.00,-16
1577859177,2020-01-01 07:12,395.00,-17
1577859237,2020-01-01 07:13,397.00,-15
1577859297,2020-01-01 07:14,397.00,-15
1577859358,2020-01-01 07:15,396.00,-16
1577859418,2020-01-01 07:16,396.00,-15
1577859478,2020-01-01 07:17,396.00,-16
1577859538,2020-01-01 07:18,396.00,-17
1577859598,2020-01-01 07:19,396.00,-17
1577859659,2020-01-01 07:20,396.00,-17
1577859719,2020-01-01 07:21,396.00,-17
1577859779,2020-01-01 07:22,396.00,-17
1577859839,2020-01-01 07:23,396.00,-16
1577859899,2020-01-01 07:24,398.00,-16
1577859959,2020-01-01 07:25,397.00,-16
1577860019,2020-01-01 07:26,398.00,-17
1577860142,2020-01-01 07:29,396.00,-16
1577860329,2020-01-01 07:32,396.00,-16
1577860389,2020-01-01 07:33,396.00,-16
1577860449,2020-01-01 07:34,398.00,-18
1577860509,2020-01-01 07:35,398.00,-18
1577860570,2020-01-01 07:36,396.00,-18
1577860630,2020-01-01 07:37,396.00,-17
1577860690,2020-01-01 07:38,398.00,-17
1577860751,2020-01-01 07:39,396.00,-16
1577860811,2020-01-01 07:40,396.00,-16
1577860871,2020-01-01 07:41,396.00,-17
1577860931,2020-01-01 07:42,398.00,-15
1577860992,2020-01-01 07:43,396.00,-16
1577861052,2020-01-01 07:44,397.00,-16
1577861112,2020-01-01 07:45,398.00,-16
1577861173,2020-01-01 07:46,397.00,-15
1577861233,2020-01-01 07:47,396.00,-16
1577861293,2020-01-01 07:48,395.00,-18
1577861353,2020-01-01 07:49,397.00,-19
1577861414,2020-01-01 07:50,396.00,-17
1577861474,2020-01-01 07:51,397.00,-17
1577861534,2020-01-01 07:52,395.00,-16
1577861595,2020-01-01 07:53,398.00,-17
1577861655,2020-01-01 07:54,395.00,-17
1577861715,2020-01-01 07:55,397.00,-18
1577861776,2020-01-01 07:56,397.00,-17
1577861836,2020-01-01 07:57,398.00,-16
1577861896,2020-01-01 07:58,399.00,-16
1577861956,2020-01-01 07:59,395.00,-17
1577862179,2020-01-01 08:02,398.00,-19
1577862240,2020-01-01 08:04,397.00,-16
1577862300,2020-01-01 08:05,398.00,-16
1577862360,2020-01-01 08:06,398.00,-17
1577862420,2020-01-01 08:07,398.00,-18
1577862481,2020-01-01 08:08,398.00,-17
1577862541,2020-01-01 08:09,397.00,-17
1577862601,2020-01-01 08:10,397.00,-16
1577862662,2020-01-01 08:11,397.00,-16
1577862722,2020-01-01 08:12,397.00,-16
1577862782,2020-01-01 08:13,396.00,-19
1577862842,2020-01-01 08:14,397.00,-16
1577862903,2020-01-01 08:15,396.00,-17
1577862963,2020-01-01 08:16,396.00,-17
1577863023,2020-01-01 08:17,397.00,-17
1577863083,2020-01-01 08:18,395.00,-16
1577863144,2020-01-01 08:19,394.00,-17
1577863204,2020-01-01 08:20,397.00,-18
1577863264,2020-01-01 08:21,396.00,-16
1577863325,2020-01-01 08:22,396.00,-18
1577863385,2020-01-01 08:23,398.00,-16
1577863445,2020-01-01 08:24,398.00,-19
1577863506,2020-01-01 08:25,396.00,-17
1577863566,2020-01-01 08:26,397.00,-16
1577863626,2020-01-01 08:27,398.00,-15
1577863686,2020-01-01 08:28,397.00,-18
1577863747,2020-01-01 08:29,397.00,-17
1577863807,2020-01-01 08:30,395.00,-17
1577863867,2020-01-01 08:31,397.00,-16
1577863928,2020-01-01 08:32,396.00,-17
1577863988,2020-01-01 08:33,396.00,-17
1577864048,2020-01-01 08:34,397.00,-16
1577864108,2020-01-01 08:35,398.00,-18
1577864169,2020-01-01 08:36,397.00,-18
1577864229,2020-01-01 08:37,395.00,-16
1577864289,2020-01-01 08:38,397.00,-16
1577864349,2020-01-01 08:39,397.00,-17
1577864410,2020-01-01 08:40,397.00,-17
1577864470,2020-01-01 08:41,397.00,-17
1577864530,2020-01-01 08:42,396.00,-17
1577864591,2020-01-01 08:43,398.00,-19
1577864651,2020-01-01 08:44,400.00,-16
1577864711,2020-01-01 08:45,397.00,-18
1577864771,2020-01-01 08:46,397.00,-16
1577864831,2020-01-01 08:47,398.00,-15
1577864891,2020-01-01 08:48,397.00,-16
1577864952,2020-01-01 08:49,397.00,-16
1577865012,2020-01-01 08:50,398.00,-17
1577865072,2020-01-01 08:51,396.00,-17
1577865132,2020-01-01 08:52,396.00,-15
1577865193,2020-01-01 08:53,399.00,-17
1577865253,2020-01-01 08:54,397.00,-16
1577865313,2020-01-01 08:55,397.00,-16
1577865374,2020-01-01 08:56,398.00,-17
1577865434,2020-01-01 08:57,398.00,-16
1577865494,2020-01-01 08:58,398.00,-18
1577865554,2020-01-01 08:59,398.00,-17
1577865615,2020-01-01 09:00,399.00,-17
1577865675,2020-01-01 09:01,396.00,-18
1577865735,2020-01-01 09:02,398.00,-18
1577865796,2020-01-01 09:03,399.00,-19
1577865856,2020-01-01 09:04,395.00,-18
1577865916,2020-01-01 09:05,397.00,-17
1577865976,2020-01-01 09:06,396.00,-16
1577866037,2020-01-01 09:07,398.00,-15
1577866097,2020-01-01 09:08,399.00,-17
1577866157,2020-01-01 09:09,397.00,-17
1577866218,2020-01-01 09:10,397.00,-17
1577866278,2020-01-01 09:11,398.00,-16
1577866338,2020-01-01 09:12,397.00,-16
1577866398,2020-01-01 09:13,399.00,-17
1577866459,2020-01-01 09:14,399.00,-19
1577866519,2020-01-01 09:15,396.00,-17
1577866579,2020-01-01 09:16,396.00,-16
1577866640,2020-01-01 09:17,397.00,-16
1577866700,2020-01-01 09:18,398.00,-17
1577866760,2020-01-01 09:19,397.00,-17
1577866820,2020-01-01 09:20,397.00,-17
1577866881,2020-01-01 09:21,398.00,-17
1577866941,2020-01-01 09:22,399.00,-16
1577867001,2020-01-01 09:23,397.00,-15
1577867062,2020-01-01 09:24,396.00,-14
1577867122,2020-01-01 09:25,397.00,-17
1577867182,2020-01-01 09:26,398.00,-18
1577867242,2020-01-01 09:27,396.00,-16
1577867303,2020-01-01 09:28,398.00,-18
1577867363,2020-01-01 09:29,398.00,-17
1577867423,2020-01-01 09:30,397.00,-17
1577867484,2020-01-01 09:31,396.00,-16
1577867544,2020-01-01 09:32,398.00,-19
1577867604,2020-01-01 09:33,398.00,-18
1577867664,2020-01-01 09:34,399.00,-18
1577867725,2020-01-01 09:35,396.00,-18
1577867785,2020-01-01 09:36,397.00,-18
1577867845,2020-01-01 09:37,396.00,-17
1577867905,2020-01-01 09:38,397.00,-17
1577867966,2020-01-01 09:39,398.00,-17
1577868026,2020-01-01 09:40,397.00,-17
1577868086,2020-01-01 09:41,396.00,-15
1577868147,2020-01-01 09:42,398.00,-16
1577868207,2020-01-01 09:43,397.00,-17
1577868267,2020-01-01 09:44,397.00,-16
1577868327,2020-01-01 09:45,397.00,-18
1577868388,2020-01-01 09:46,397.00,-17
1577868448,2020-01-01 09:47,397.00,-17
1577868508,2020-01-01 09:48,397.00,-17
1577868569,2020-01-01 09:49,397.00,-18
1577868629,2020-01-01 09:50,398.00,-18
1577868689,2020-01-01 09:51,398.00,-18
1577868749,2020-01-01 09:52,399.00,-16
1577868809,2020-01-01 09:53,398.00,-15
1577868869,2020-01-01 09:54,397.00,-16
1577868929,2020-01-01 09:55,396.00,-16
1577868989,2020-01-01 09:56,398.00,-16
1577869050,2020-01-01 09:57,396.00,-16
1577869110,2020-01-01 09:58,399.00,-17
1577869170,2020-01-01 09:59,397.00,-16
1577869230,2020-01-01 10:00,396.00,-15
1577869290,2020-01-01 10:01,397.00,-18
1577869350,2020-01-01 10:02,399.00,-17
1577869410,2020-01-01 10:03,397.00,-17
1577869470,2020-01-01 10:04,398.00,-17
1577869530,2020-01-01 10:05,397.00,-14
1577869590,2020-01-01 10:06,396.00,-18
1577869650,2020-01-01 10:07,394.00,-17
1577869711,2020-01-01 10:08,398.00,-16
1577869771,2020-01-01 10:09,397.00,-15
1577869831,2020-01-01 10:10,396.00,-17
1577869891,2020-01-01 10:11,397.00,-14
1577869951,2020-01-01 10:12,397.00,-17
1577870011,2020-01-01 10:13,397.00,-16
1577870071,2020-01-01 10:14,397.00,-15
1577870131,2020-01-01 10:15,398.00,-16
1577870191,2020-01-01 10:16,397.00,-17
1577870251,2020-01-01 10:17,398.00,-16
1577870311,2020-01-01 10:18,399.00,-18
1577870372,2020-01-01 10:19,397.00,-17
1577870432,2020-01-01 10:20,397.00,-16
1577870492,2020-01-01 10:21,395.00,-17
1577870552,2020-01-01 10:22,396.00,-16
1577870612,2020-01-01 10:23,397.00,-17
1577870672,2020-01-01 10:24,398.00,-16